sat.trackr.live / text

‹ back to catalog

STARLINK-3852

NORAD 52345 · 2022-045Q

PAYLOAD ACTIVE UNKNOWN

§ Identity

Operator
Country
US
Launch date
2022-04-29
Launch site
AFETR
Launch vehicle
Mass (kg)
RCS (m²)

Purposes: comms

External: N2YO · Heavens-Above · Gunter

§ Orbital elements

Epoch: 2026-09-19T23:37:43.978656Z

Period
94.01 min
Inclination
53.1606°
Eccentricity
0.0000924
Mean motion
15.31699085 rev/d
Perigee alt
470.1 km
Apogee alt
471.4 km
Semi-major
6,848.9 km
B*
-9.8504e-6
RAAN
36.1807°
Arg perigee
86.4594°
Mean anomaly
273.6513°
Rev number
24,524

§ Raw data

STARLINK-38521 52345U 22045Q   26262.98453679 -.00000671  00000+0 -98504-5 0  99972 52345  53.1606  36.1807 0000924  86.4594 273.6513 15.31699085245249

JSON: /api/v1/satellites/52345 · /tle

For live sub-satellite position, see the globe view (requires WebGL).

§ Visibility from observer

Set your observer location to see the next 7 days of passes ≥ 10°. The values pass through the URL so the page stays shareable.

No JS? Fill the form by hand. The geolocation button needs JavaScript.